This demonstration page uses our WeatherBlox Daily Observations layout. Learn more.

Left ArrowRight Arrow

39.01783, -85.05884

Hourly Observations for June 28, 2022

Temp ( °F °C ) Dew Point ( °F °C ) Humidity (%) Winds ( mph kmh ) Pressure ( in mb ) Visibility ( mi km ) Precip ( " mm )
12:52 am 00:52 Clear 65 18.3 44 6.7 47 47 N 10 17 30.20 1023 10 16 0.00 0.00
1:52 am 01:52 Mostly Clear 64 17.8 44 6.7 48 48 N 8 13 30.21 1023 10 16 0.00 0.00
2:52 am 02:52 Clear 61 16.1 44 6.7 54 54 N 7 11 30.21 1023 10 16 0.00 0.00
3:52 am 03:52 Mostly Clear 59 15 45 7.2 60 60 N 9 15 30.21 1023 10 16 0.00 0.00
4:52 am 04:52 Clear 60 15.6 45 7.2 58 58 NNE 7 11 30.21 1023 10 16 0.00 0.00
5:52 am 05:52 Mostly Clear 60 15.6 45 7.2 58 58 VRB 5 7 30.21 1023 10 16 0.00 0.00
6:52 am 06:52 Mostly Cloudy 59 15 45 7.2 60 60 NNW 5 7 30.22 1023 10 16 0.00 0.00
7:52 am 07:52 Mostly Cloudy 59 15 48 8.9 67 67 N 6 9 30.24 1024 10 16 0.00 0.00
8:52 am 08:52 Mostly Cloudy 63 17.2 50 10 63 63 N 5 7 30.24 1024 10 16 0.00 0.00
9:52 am 09:52 Mostly Cloudy 67 19.4 49 9.4 53 53 ESE 5 7 30.25 1024 10 16 0.00 0.00
10:52 am 10:52 Mostly Cloudy 69 20.6 46 7.8 44 44 Calm 30.25 1025 10 16 0.00 0.00
11:52 am 11:52 Mostly Cloudy 72 22.2 46 7.8 40 40 WNW 5 7 30.26 1025 10 16 0.00 0.00
12:52 pm 12:52 Mostly Cloudy 75 23.9 44 6.7 33 33 E 6 9 30.24 1024 10 16 0.00 0.00
1:52 pm 13:52 Mostly Cloudy 75 23.9 43 6.1 32 32 ESE 5 7 30.23 1024 10 16 0.00 0.00
2:52 pm 14:52 Mostly Cloudy 77 25 44 6.7 31 31 VRB 3 6 30.22 1023 10 16 0.00 0.00
3:52 pm 15:52 Mostly Cloudy 76 24.4 49 9.4 39 39 VRB 5 7 30.21 1023 10 16 0.00 0.00
4:52 pm 16:52 Mostly Cloudy 77 25 43 6.1 30 30 NNW 5 7 30.20 1023 10 16 0.00 0.00
5:52 pm 17:52 Mostly Cloudy 77 25 45 7.2 32 32 VRB 5 7 30.18 1022 10 16 0.00 0.00
6:52 pm 18:52 Partly Cloudy 78 25.6 43 6.1 29 29 NNW 7 11 30.17 1022 10 16 0.00 0.00
7:52 pm 19:52 Mostly Sunny 77 25 42 5.6 29 29 NNW 7 11 30.16 1022 10 16 0.00 0.00
8:52 pm 20:52 Mostly Sunny 74 23.3 47 8.3 38 38 NNW 7 11 30.16 1022 10 16 0.00 0.00
9:52 pm 21:52 Clear 66 18.9 49 9.4 54 54 SSW 7 11 30.17 1022 10 16 0.00 0.00
10:52 pm 22:52 Clear 64 17.8 50 10 60 60 S 5 7 30.19 1022 10 16 0.00 0.00
11:52 pm 23:52 Clear 64 17.8 47 8.3 54 54 Calm 30.19 1022 10 16 0.00 0.00

Powered by AerisWeather